Weather History for KTEX - September, 2014

Change the Weather History Date:

Tuesday, September 9, 2014

  Actual Average Record
Temperature  
Mean Temperature 50 °F -  
Max Temperature 55 °F 62 °F 71 °F (1998)
Min Temperature 46 °F 43 °F 26 °F (2001)
Degree Days  
Heating Degree Days 14    
Moisture  
Dew Point 49 °F    
Average Humidity 93    
Maximum Humidity 100    
Minimum Humidity 63    
Precipitation  
Precipitation 0.72 in - - ()
Sea Level Pressure  
Sea Level Pressure 30.25 in    
Wind  
Wind Speed 1 mph (SSE)    
Max Wind Speed 14 mph    
Max Gust Speed 23 mph    
Visibility 7 miles    
Events Fog , Rain    
Averages and records for this station are not official NWS values.
T = Trace of Precipitation, MM = Missing Value Source: NWS Daily Summary

Daily Weather History Graph

Daily Weather History Graph

Search for Another Location

Airport or City:

Trip Planner

Search our weather history database for the weather conditions in past years. The results will help you decide how hot, cold, wet, or windy it might be!

Date:

Astronomy

Sep. 09, 2014 Rise Set
Actual Time 6:48 AM MDT 7:28 PM MDT
Civil Twilight 6:21 AM MDT 7:55 PM MDT
Nautical Twilight 5:50 AM MDT 8:26 PM MDT
Astronomical Twilight 5:18 AM MDT 8:58 PM MDT
Moon 7:52 PM MDT (9/9) 7:27 AM MDT (9/9)
Length of Visible Light 13h 33m
Length of Day
12h 40m
Full, 99% of the Moon is Illuminated
Sep 9
Full
Sep 15
Last Quarter
Sep 24
New
Oct 1
First Quarter
Oct 8
Full

Hourly Weather History & Observations

Time (MDT) Temp. Windchill Dew Point Humidity Pressure Visibility Wind Dir Wind Speed Gust Speed Precip Events Conditions
12:16 AM 53.6 °F - 51.8 °F 94% 30.28 in 10.0 mi Calm Calm - 0.01 in   Overcast
12:36 AM 53.6 °F - 51.8 °F 94% 30.28 in 10.0 mi Calm Calm - 0.01 in Rain Light Rain
12:58 AM 53.6 °F - 51.8 °F 94% 30.28 in 10.0 mi Calm Calm - N/A   Drizzle
1:16 AM 53.6 °F - 51.8 °F 94% 30.28 in 7.0 mi Calm Calm - 0.01 in Rain Light Rain
1:36 AM 51.8 °F - 51.8 °F 100% 30.27 in 10.0 mi Calm Calm - 0.01 in Rain Light Rain
2:16 AM 51.8 °F - 51.8 °F 100% 30.26 in 10.0 mi Calm Calm - N/A Rain Light Rain
2:56 AM 51.8 °F - 51.8 °F 100% 30.25 in 5.0 mi Calm Calm - 0.01 in Rain Rain
3:16 AM 51.8 °F - 51.8 °F 100% 30.26 in 4.0 mi Calm Calm - 0.05 in Rain Heavy Rain
3:36 AM 51.8 °F - 51.8 °F 100% 30.25 in 3.0 mi Calm Calm - 0.13 in Rain Rain
3:56 AM 51.8 °F - 51.8 °F 100% 30.24 in 1.8 mi Calm Calm - 0.01 in Rain Rain
4:16 AM 51.8 °F - 51.8 °F 100% 30.24 in 3.0 mi Calm Calm - 0.09 in Rain Heavy Rain
4:36 AM 51.8 °F - 51.8 °F 100% 30.24 in 7.0 mi Calm Calm - 0.12 in Rain Light Rain
5:16 AM 51.8 °F - 51.8 °F 100% 30.23 in 1.0 mi SE 4.6 mph - N/A Rain Rain
5:36 AM 51.8 °F - 51.8 °F 100% 30.23 in 7.0 mi Calm Calm - 0.01 in Rain Rain
5:56 AM 51.8 °F - 51.8 °F 100% 30.22 in 0.5 mi Calm Calm - N/A Fog Fog
6:16 AM 51.8 °F - 51.8 °F 100% 30.22 in 2.5 mi SSE 3.5 mph - 0.01 in Rain Light Rain
6:36 AM 51.8 °F - 51.8 °F 100% 30.24 in 3.0 mi SE 4.6 mph - 0.05 in Rain Heavy Rain
6:58 AM 51.8 °F - 51.8 °F 100% 30.24 in 0.8 mi Calm Calm - 0.01 in Rain Rain
7:36 AM 51.8 °F - 51.8 °F 100% 30.24 in 0.8 mi Calm Calm - 0.16 in Rain Heavy Rain
7:56 AM 51.8 °F - 51.8 °F 100% 30.24 in 4.0 mi West 4.6 mph - 0.01 in Rain Light Rain
8:16 AM 51.8 °F - 51.8 °F 100% 30.24 in 4.0 mi Calm Calm - 0.05 in Rain Rain
8:36 AM 51.8 °F - 51.8 °F 100% 30.24 in 4.0 mi WSW 4.6 mph - 0.06 in Rain Light Rain
10:36 AM 53.6 °F - 51.8 °F 94% 30.25 in 5.0 mi Calm Calm - N/A Rain Rain
10:56 AM 53.6 °F - 53.6 °F 100% 30.24 in 1.8 mi Calm Calm - N/A Rain Light Rain
11:17 AM 51.8 °F - 51.8 °F 100% 30.25 in 4.0 mi West 6.9 mph - 0.04 in Rain Rain
11:56 AM 48.2 °F - 48.2 °F 100% 30.29 in 3.0 mi West 13.8 mph 23.0 mph 0.01 in Rain Heavy Rain
12:16 PM 48.2 °F - 46.4 °F 93% 30.29 in 5.0 mi West 10.4 mph - 0.06 in Rain Rain
12:56 PM 48.2 °F - 46.4 °F 93% 30.31 in 5.0 mi Calm Calm - N/A Rain Rain
1:16 PM 48.2 °F - 46.4 °F 93% 30.30 in 5.0 mi ESE 3.5 mph - 0.04 in Rain Rain
2:36 PM 48.2 °F - 46.4 °F 93% 30.27 in 10.0 mi East 6.9 mph - 0.01 in   Overcast
3:36 PM 53.6 °F - 46.4 °F 77% 30.23 in 10.0 mi Calm Calm - N/A   Overcast
3:56 PM 53.6 °F - 46.4 °F 77% 30.22 in 10.0 mi SSE 3.5 mph - N/A   Mostly Cloudy
4:16 PM 55.4 °F - 46.4 °F 72% 30.22 in 10.0 mi Calm Calm - N/A   Mostly Cloudy
4:36 PM 55.4 °F - 48.2 °F 77% 30.22 in 10.0 mi SSW 3.5 mph - N/A   Mostly Cloudy
4:56 PM 55.4 °F - 42.8 °F 63% 30.23 in 10.0 mi Calm Calm - N/A   Mostly Cloudy
5:36 PM 51.8 °F - 44.6 °F 76% 30.24 in 10.0 mi Calm Calm - 0.01 in Rain Light Rain
5:56 PM 51.8 °F - 46.4 °F 82% 30.23 in 10.0 mi Calm Calm - N/A   Overcast
6:36 PM 51.8 °F - 46.4 °F 82% 30.23 in 10.0 mi Calm Calm - N/A   Overcast
6:56 PM 51.8 °F - 46.4 °F 82% 30.22 in 10.0 mi Calm Calm - N/A   Overcast
7:36 PM 51.8 °F - 46.4 °F 82% 30.22 in 10.0 mi ESE 6.9 mph - N/A   Overcast
8:18 PM 50.0 °F - 44.6 °F 82% 30.23 in 10.0 mi East 3.5 mph - N/A   Mostly Cloudy
8:56 PM 48.2 °F - 44.6 °F 87% 30.24 in 10.0 mi Calm Calm - N/A   Mostly Cloudy
9:16 PM 48.2 °F - 44.6 °F 87% 30.24 in 10.0 mi Calm Calm - N/A   Scattered Clouds
9:36 PM 48.2 °F - 44.6 °F 87% 30.24 in 10.0 mi Calm Calm - N/A   Mostly Cloudy
10:16 PM 48.2 °F - 44.6 °F 87% 30.24 in 10.0 mi Calm Calm - N/A   Overcast
10:36 PM 48.2 °F - 46.4 °F 93% 30.25 in 10.0 mi Calm Calm - N/A   Overcast
11:16 PM 46.4 °F - 46.4 °F 100% 30.26 in 10.0 mi Calm Calm - 0.01 in Rain Light Rain
11:36 PM 46.4 °F - 46.4 °F 100% 30.26 in 10.0 mi Calm Calm - 0.01 in   Overcast
11:56 PM 46.4 °F 43.5 °F 46.4 °F 100% 30.26 in 10.0 mi ESE 5.8 mph - N/A   Overcast